• In Denmark
  • List of Countries
  • For 7 days
  • Water Temperature
  • Satellite Maps
  • Weather Map
  • Weather Widgets
  • user-avatar
    Login

    Hourly Weather Igls

    Today, 22 July, Saturday

    Time Temperature Precipitation Wind Pressure Humidity
    00:00 +17°C° 0.2 mm 2 mps 684 mmHg 88%
    01:00 +16°C° 0.2 mm 2 mps 684 mmHg 89%
    02:00 +16°C° 0.2 mm 2 mps 684 mmHg 88%
    03:00 +16°C° 0.2 mm 2 mps 684 mmHg 88%
    04:00 +16°C° 0.2 mm 2 mps 684 mmHg 88%
    05:00 +18°C° 0.1 mm 1 mps 684 mmHg 85%
    06:00 +19°C° 0.1 mm 1 mps 685 mmHg 82%
    07:00 +20°C° 0.1 mm 1 mps 685 mmHg 79%
    08:00 +21°C° 0 mm 1 mps 685 mmHg 72%
    09:00 +23°C° 0 mm 1 mps 686 mmHg 65%
    10:00 +25°C° 0 mm 1 mps 686 mmHg 58%
    11:00 +25°C° 0.4 mm 1 mps 686 mmHg 60%
    12:00 +25°C° 0.4 mm 1 mps 686 mmHg 61%
    13:00 +26°C° 0.4 mm 1 mps 686 mmHg 63%
    14:00 +25°C° 1.2 mm 1 mps 686 mmHg 65%
    15:00 +25°C° 1.2 mm 1 mps 686 mmHg 67%
    16:00 +25°C° 1.2 mm 1 mps 686 mmHg 69%
    17:00 +24°C° 1.3 mm 1 mps 686 mmHg 75%
    18:00 +21°C° 1.3 mm 0 mps 685 mmHg 81%
    19:00 +20°C° 1.3 mm 0 mps 685 mmHg 87%
    20:00 +19°C° 1.5 mm 0 mps 685 mmHg 89%
    21:00 +20°C° 1.5 mm 1 mps 685 mmHg 91%
    22:00 +19°C° 1.5 mm 1 mps 685 mmHg 94%
    23:00 +19°C° 0.9 mm 1 mps 685 mmHg 94%

    Tomorrow, 23 July, Sunday

    Time Temperature Precipitation Wind Pressure Humidity
    00:00 +18°C° 0.9 mm 1 mps 685 mmHg 94%
    01:00 +17°C° 0.9 mm 2 mps 685 mmHg 95%
    02:00 +18°C° 1.3 mm 1 mps 685 mmHg 95%
    03:00 +18°C° 1.3 mm 1 mps 685 mmHg 95%
    04:00 +18°C° 1.3 mm 1 mps 686 mmHg 96%
    05:00 +18°C° 0.3 mm 1 mps 686 mmHg 94%
    06:00 +19°C° 0.3 mm 1 mps 686 mmHg 92%
    07:00 +20°C° 0.3 mm 1 mps 686 mmHg 90%
    08:00 +21°C° 0.1 mm 1 mps 686 mmHg 82%
    09:00 +22°C° 0.1 mm 1 mps 687 mmHg 74%
    10:00 +24°C° 0.1 mm 2 mps 687 mmHg 67%
    11:00 +24°C° 0.4 mm 2 mps 687 mmHg 69%
    12:00 +24°C° 0.4 mm 2 mps 686 mmHg 70%
    13:00 +24°C° 0.4 mm 2 mps 686 mmHg 72%
    14:00 +23°C° 1.1 mm 2 mps 686 mmHg 77%
    15:00 +21°C° 1.1 mm 2 mps 686 mmHg 83%
    16:00 +20°C° 1.1 mm 2 mps 685 mmHg 88%
    17:00 +20°C° 1 mm 2 mps 685 mmHg 90%
    18:00 +20°C° 1 mm 1 mps 685 mmHg 93%
    19:00 +19°C° 1 mm 1 mps 685 mmHg 96%
    20:00 +19°C° 0.6 mm 1 mps 685 mmHg 96%
    21:00 +18°C° 0.6 mm 1 mps 685 mmHg 97%
    22:00 +18°C° 0.6 mm 1 mps 685 mmHg 97%
    23:00 +18°C° 0.5 mm 1 mps 685 mmHg 98%

    Day after tomorrow, 24 July, Monday

    Time Temperature Precipitation Wind Pressure Humidity
    00:00 +18°C° 0.5 mm 1 mps 685 mmHg 98%
    01:00 +16°C° 0.5 mm 1 mps 684 mmHg 98%
    02:00 +16°C° 0.5 mm 1 mps 684 mmHg 98%
    03:00 +16°C° 0.5 mm 1 mps 683 mmHg 97%
    04:00 +16°C° 0.5 mm 1 mps 682 mmHg 97%
    05:00 +15°C° 0.9 mm 0 mps 682 mmHg 96%
    06:00 +16°C° 0.9 mm 0 mps 682 mmHg 95%
    07:00 +16°C° 0.9 mm 0 mps 682 mmHg 93%
    08:00 +18°C° 1.3 mm 1 mps 681 mmHg 92%
    09:00 +19°C° 1.3 mm 1 mps 681 mmHg 91%
    10:00 +19°C° 1.3 mm 1 mps 681 mmHg 90%
    11:00 +18°C° 2.3 mm 1 mps 680 mmHg 92%
    12:00 +18°C° 2.3 mm 1 mps 680 mmHg 93%
    13:00 +16°C° 2.3 mm 2 mps 680 mmHg 95%
    14:00 +16°C° 1.9 mm 2 mps 680 mmHg 95%
    15:00 +15°C° 1.9 mm 2 mps 680 mmHg 95%
    16:00 +15°C° 1.9 mm 2 mps 680 mmHg 96%
    17:00 +15°C° 0.8 mm 2 mps 680 mmHg 96%
    18:00 +14°C° 0.8 mm 2 mps 680 mmHg 96%
    19:00 +14°C° 0.8 mm 2 mps 680 mmHg 96%
    20:00 +14°C° 0.2 mm 2 mps 681 mmHg 96%
    21:00 +13°C° 0.2 mm 2 mps 681 mmHg 96%
    22:00 +13°C° 0.2 mm 2 mps 681 mmHg 96%
    23:00 +12°C° 0 mm 2 mps 681 mmHg 96%

    25 July, Tuesday

    Time Temperature Precipitation Wind Pressure Humidity
    00:00 +12°C° 0 mm 2 mps 680 mmHg 96%
    01:00 +10°C° 0 mm 2 mps 680 mmHg 96%
    02:00 +10°C° 0 mm 2 mps 680 mmHg 96%
    03:00 +9°C° 0 mm 2 mps 680 mmHg 96%
    04:00 +9°C° 0 mm 2 mps 680 mmHg 96%
    05:00 +10°C° 0 mm 2 mps 680 mmHg 94%
    06:00 +12°C° 0 mm 2 mps 680 mmHg 91%
    07:00 +13°C° 0 mm 2 mps 680 mmHg 89%
    08:00 +14°C° 0.1 mm 2 mps 680 mmHg 82%
    09:00 +15°C° 0.1 mm 2 mps 681 mmHg 75%
    10:00 +16°C° 0.1 mm 3 mps 681 mmHg 68%
    11:00 +17°C° 0.2 mm 3 mps 681 mmHg 63%
    12:00 +19°C° 0.2 mm 3 mps 681 mmHg 57%
    13:00 +20°C° 0.2 mm 3 mps 681 mmHg 51%
    14:00 +19°C° 0.5 mm 3 mps 681 mmHg 56%
    15:00 +19°C° 0.5 mm 3 mps 681 mmHg 61%
    16:00 +18°C° 0.5 mm 3 mps 681 mmHg 66%
    17:00 +17°C° 0.5 mm 2 mps 681 mmHg 72%
    18:00 +16°C° 0.5 mm 2 mps 681 mmHg 78%
    19:00 +15°C° 0.5 mm 2 mps 681 mmHg 83%
    20:00 +14°C° 0.1 mm 2 mps 681 mmHg 86%
    21:00 +13°C° 0.1 mm 2 mps 681 mmHg 89%
    22:00 +10°C° 0.1 mm 2 mps 681 mmHg 93%
    23:00 +10°C° 0 mm 2 mps 681 mmHg 93%

    26 July, Wednesday

    Time Temperature Precipitation Wind Pressure Humidity
    00:00 +9°C° 0 mm 2 mps 681 mmHg 92%
    01:00 +9°C° 0 mm 2 mps 681 mmHg 92%
    02:00 +9°C° 0 mm 1 mps 681 mmHg 91%
    03:00 +9°C° 0 mm 1 mps 680 mmHg 90%
    04:00 +9°C° 0 mm 1 mps 680 mmHg 89%
    05:00 +11°C° 0 mm 1 mps 681 mmHg 83%
    06:00 +12°C° 0 mm 1 mps 681 mmHg 78%
    07:00 +14°C° 0 mm 1 mps 682 mmHg 73%
    08:00 +16°C° 0 mm 1 mps 682 mmHg 65%
    09:00 +19°C° 0 mm 1 mps 682 mmHg 57%
    10:00 +21°C° 0 mm 1 mps 683 mmHg 49%
    11:00 +21°C° 0.1 mm 2 mps 683 mmHg 47%
    12:00 +21°C° 0.1 mm 2 mps 682 mmHg 45%
    13:00 +23°C° 0.1 mm 2 mps 682 mmHg 42%
    14:00 +23°C° 0.2 mm 2 mps 682 mmHg 45%
    15:00 +21°C° 0.2 mm 2 mps 682 mmHg 47%
    16:00 +21°C° 0.2 mm 2 mps 682 mmHg 49%
    17:00 +21°C° 0.2 mm 1 mps 682 mmHg 58%
    18:00 +20°C° 0.2 mm 1 mps 682 mmHg 66%
    19:00 +19°C° 0.2 mm 1 mps 682 mmHg 74%
    20:00 +16°C° 0 mm 1 mps 682 mmHg 78%
    21:00 +15°C° 0 mm 1 mps 682 mmHg 82%
    22:00 +14°C° 0 mm 1 mps 682 mmHg 85%
    23:00 +13°C° 0 mm 1 mps 682 mmHg 85%

    27 July, Thursday

    Time Temperature Precipitation Wind Pressure Humidity
    00:00 +13°C° 0 mm 2 mps 682 mmHg 85%
    01:00 +13°C° 0 mm 2 mps 681 mmHg 85%
    02:00 +13°C° 0 mm 2 mps 681 mmHg 85%
    03:00 +13°C° 0 mm 2 mps 681 mmHg 85%
    04:00 +13°C° 0 mm 2 mps 681 mmHg 85%
    05:00 +14°C° 0.5 mm 2 mps 682 mmHg 86%
    06:00 +14°C° 0.5 mm 2 mps 682 mmHg 88%
    07:00 +15°C° 0.5 mm 2 mps 682 mmHg 90%
    08:00 +16°C° 0.2 mm 2 mps 682 mmHg 84%
    09:00 +18°C° 0.2 mm 2 mps 682 mmHg 77%
    10:00 +20°C° 0.2 mm 2 mps 683 mmHg 71%
    11:00 +20°C° 0.4 mm 2 mps 683 mmHg 70%
    12:00 +21°C° 0.4 mm 2 mps 683 mmHg 69%
    13:00 +21°C° 0.4 mm 2 mps 683 mmHg 68%
    14:00 +20°C° 2.1 mm 2 mps 683 mmHg 76%
    15:00 +20°C° 2.1 mm 1 mps 683 mmHg 84%
    16:00 +18°C° 2.1 mm 1 mps 683 mmHg 92%
    17:00 +18°C° 1.5 mm 1 mps 683 mmHg 93%
    18:00 +18°C° 1.5 mm 1 mps 683 mmHg 93%
    19:00 +16°C° 1.5 mm 1 mps 683 mmHg 94%
    20:00 +16°C° 0.2 mm 1 mps 683 mmHg 94%
    21:00 +15°C° 0.2 mm 1 mps 683 mmHg 95%
    22:00 +14°C° 0.2 mm 1 mps 684 mmHg 95%
    23:00 +14°C° 0.1 mm 1 mps 683 mmHg 95%
    Show more